CAPE
0 0 0 0 70 235 47 218 43 140 165 62 0 33 88 519 746 981 0 0 411 517 981 564 510 345 392 471 511 470 469 362 265 195 166 237 289 245 169 224 413 420 405 427 421 404 352 313 265
0 0 0 0 158 25 1 124 439 402 199 23 0 32 193 682 737 255 0 0 536 731 853 391 638 635 400 629 667 532 394 260 218 267 251 256 266 244 209 279 354 401 458 460 410 337 264 191 136
0 0 0 3 2 167 17 101 223 505 315 48 195 50 210 736 463 33 0 0 593 566 773 869 828 709 475 510 435 432 361 249 310 395 398 346 342 281 377 472 463 429 388 320 257 183 119 85 57
0 0 0 2 21 89 71 11 231 372 482 296 172 632 677 400 213 66 0 194 368 429 834 899 1046 640 349 479 430 356 338 403 410 440 448 453 427 472 517 527 469 362 260 211 176 159 168 161 160
0 0 0 0 35 5 0 203 465 163 94 233 74 363 842 485 190 0 15 233 174 532 682 743 1018 626 382 477 446 376 497 530 508 529 521 587 607 640 647 584 478 300 237 195 168 130 102 131 184
0 0 0 19 63 4 0 28 384 247 120 238 200 115 776 259 7 5 79 144 141 703 432 627 964 876 848 609 468 652 889 806 639 656 651 706 703 698 678 578 441 340 291 234 191 184 234 295 365
0 4 0 28 18 15 19 52 439 303 205 273 151 229 738 295 23 4 42 135 192 713 607 419 379 688 685 801 770 741 723 796 683 650 734 747 752 736 692 593 468 365 317 316 323 371 480 645 787
0 0 9 9 46 30 72 40 433 467 314 141 100 123 876 644 233 8 0 70 158 520 759 420 302 222 215 445 748 775 755 844 755 804 830 815 775 775 708 682 530 483 470 476 539 646 805 1009 1342
0 0 9 21 31 32 0 65 478 423 278 255 264 145 661 924 323 19 0 40 115 205 575 413 232 163 73 58 595 854 880 947 922 834 930 768 334 400 710 517 738 469 529 705 911 1099 1428 1793 1921
0 0 2 23 7 9 1 9 522 530 219 178 300 436 1390 1050 413 40 0 63 101 124 378 405 255 211 157 246 539 330 359 448 438 368 667 515 328 352 319 669 723 619 790 1189 1515 1787 1973 1887 1493
0 0 2 25 0 0 0 63 470 300 221 231 108 869 1308 1042 497 145 9 16 66 101 278 401 460 501 204 277 644 389 343 314 452 587 949 393 385 334 135 110 484 424 519 1070 1091 1733 1944 1863 1300
0 0 0 19 0 0 0 0 313 343 109 128 175 969 1387 984 459 140 29 0 31 96 213 368 581 959 492 275 588 441 441 503 635 763 1021 955 948 516 436 293 250 589 873 1070 1300 1005 1038 1226 1295
0 0 0 0 0 0 0 0 24 85 117 185 170 917 1228 691 409 89 48 16 65 103 221 320 736 1331 1059 701 531 522 454 544 563 819 1046 727 710 605 565 406 370 349 660 1047 1089 1143 1243 1395 1286
0 0 0 1 0 0 0 3 0 0 0 5 122 374 940 408 336 170 147 148 155 199 368 371 824 1689 1433 1572 1012 692 743 644 636 698 662 901 881 839 601 935 1015 661 811 1137 1370 1878 1910 1766 1663
0 0 0 0 0 0 0 0 0 0 2 0 122 212 420 428 188 240 248 506 579 635 714 717 893 1629 1917 1624 1399 1087 740 554 789 986 1059 1013 1299 1267 1453 1455 1603 1817 1952 1913 1970 1873 2018 2324 2150
0 0 0 0 0 0 0 0 0 0 1 0 28 85 100 259 148 311 414 634 890 1084 1609 1310 997 1310 1913 1795 1575 986 749 667 1112 1400 1256 1494 1585 1846 2184 1987 1993 2178 2346 2300 2215 2618 2549 2023 2098
0 0 0 0 0 0 0 0 0 19 3 0 2 25 100 201 471 331 713 905 1021 1454 1765 2225 2002 1366 1906 2295 1538 1531 1943 1059 1254 1598 1579 1941 1783 1712 2111 2148 2368 2942 2610 2502 2381 2168 3116 2319 2289
0 0 0 0 0 0 0 0 0 1 22 1 0 0 6 148 304 592 659 994 1463 1700 2547 2894 2627 3200 3258 2175 1988 1276 956 1111 1226 1688 1784 2142 2431 2321 2539 2776 2994 2976 2611 2265 2493 2537 2385 2051 2156
0 0 0 0 0 0 0 0 0 0 0 2 0 0 0 0 105 310 936 1355 2029 2801 3111 3223 3376 3780 3079 2316 1832 1459 1217 1399 1032 1531 2223 2837 3145 3244 3300 3049 2809 2667 2745 2419 2533 2171 2354 1558 1851
0 0 0 0 0 0 0 0 0 0 0 0 0 0 0 0 0 50 768 1981 2714 3473 3914 4004 3796 4407 3943 2930 2920 2140 1865 1570 1927 2531 3044 3239 3429 3332 3139 2942 2804 2610 2196 2068 1587 1567 1333 1134 465
0 0 0 0 0 0 0 0 0 0 0 0 0 0 0 0 0 0 94 1745 2652 3372 4079 3836 4502 4430 3982 3570 3350 3214 2350 2423 2298 2941 3215 3269 2985 2817 2811 2697 2441 2363 2079 1532 799 398 161 31 0
0 0 0 0 0 0 0 0 0 0 0 0 0 0 0 0 0 0 4 425 2364 2857 3016 3847 4327 4883 4469 4519 3242 3412 2135 2219 2848 3050 2880 2580 2473 2356 2241 2162 1850 1317 571 401 7 0 0 0 0
0 0 0 0 0 0 0 0 0 0 0 0 0 0 0 0 0 0 0 0 645 2367 2755 3576 4663 4914 4807 4642 4025 3457 3086 2652 2599 2664 3097 2990 2181 1716 1148 1122 770 331 66 53 0 0 0 0 0
0 0 0 0 0 0 0 0 0 0 0 18 7 106 147 299 354 90 104 180 192 1269 2762 3303 4334 5054 4933 4935 4414 4538 3929 3659 2971 3245 2364 1978 1538 985 535 259 81 0 0 0 0 0 0 0 0
2 2 1 2 11 1 10 27 30 17 17 144 122 52 19 90 485 1080 1060 666 583 1075 2811 3060 3868 4368 4602 4420 4175 4756 4644 4474 4850 3430 2209 2020 1139 272 230 78 9 0 0 0 0 0 0 0 0
0 0 6 11 12 27 33 43 75 7 145 59 1 0 0 0 1 125 1235 898 675 1457 2476 2833 3224 3788 3959 3979 3753 4306 4172 3455 3241 2981 2024 1769 721 188 32 25 0 0 0 0 0 0 0 0 0
0 0 0 0 1 3 1 2 21 322 34 0 0 0 0 0 0 3 499 1958 2565 3253 2714 2939 3203 3457 3783 3812 4027 3894 4121 4164 3138 2858 1970 501 574 24 0 0 0 0 0 0 0 0 0 0 0
0 0 0 0 4 6 6 52 148 18 0 0 0 0 0 0 0 0 9 475 1124 1885 2744 3239 3180 3275 3077 3880 3677 3620 3098 3255 2635 1458 840 638 365 10 0 0 0 0 0 0 0 0 0 0 0
0 0 0 0 0 0 0 0 158 0 0 0 0 0 0 0 0 0 0 92 551 646 947 1978 2664 2540 2595 3007 2862 2326 2510 2385 1863 1238 704 320 33 0 0 0 0 0 0 0 0 0 0 0 0
0 0 0 0 0 0 0 0 1 4 0 0 0 0 0 0 0 0 0 0 0 56 511 737 1695 2142 2160 2457 2661 2833 2166 1702 877 698 222 10 0 0 0 0 0 0 0 0 0 0 0 0 0
CIN
-0 -0 -0 -0 -41 -19 -5 -0 -14 -13 -0 -12 -0 -2 -6 -20 -7 -5 -0 -0 -102 -180 -174 -240 -233 -251 -223 -184 -145 -129 -115 -129 -147 -162 -159 -122 -90 -86 -103 -80 -18 -10 -10 -7 -6 -9 -26 -19 -22
-0 -0 -0 -0 -1 -41 -39 -1 -0 -0 -15 -42 -0 -34 -6 -12 -34 -105 -0 -0 -96 -159 -167 -251 -199 -174 -212 -147 -125 -122 -135 -155 -155 -134 -126 -121 -111 -105 -103 -69 -35 -16 -11 -11 -15 -22 -34 -50 -64
-0 -0 -0 -0 -28 -2 -66 -18 -0 -0 -7 -48 -16 -62 -21 -37 -80 -112 -0 -0 -103 -143 -132 -167 -163 -165 -189 -166 -161 -147 -149 -158 -129 -105 -103 -114 -107 -110 -77 -42 -36 -27 -20 -27 -37 -59 -86 -100 -117
-0 -0 -0 -30 -14 -1 -20 -45 -0 -0 -2 -4 -10 -3 -69 -99 -112 -160 -0 -114 -99 -96 -110 -176 -140 -187 -221 -169 -160 -162 -151 -127 -121 -113 -109 -103 -105 -83 -67 -56 -56 -66 -85 -85 -92 -96 -89 -89 -94
-0 -0 -0 -0 -1 -2 -0 -0 -0 -54 -16 -1 -68 -2 -47 -109 -127 -0 -120 -96 -76 -50 -132 -190 -158 -195 -220 -178 -166 -170 -136 -119 -123 -117 -115 -99 -91 -78 -72 -76 -85 -115 -136 -142 -145 -154 -164 -150 -124
-0 -0 -0 -0 -0 -2 -0 -2 -0 -0 -0 -12 -14 -26 -29 -121 -195 -219 -129 -82 -68 -46 -150 -213 -159 -159 -149 -172 -172 -129 -86 -93 -114 -111 -99 -83 -86 -86 -82 -84 -117 -139 -156 -174 -176 -174 -157 -138 -121
-0 -0 -0 -0 -23 -0 -0 -3 -0 -3 -0 -2 -38 -2 -42 -78 -149 -169 -115 -71 -67 -53 -102 -195 -212 -178 -175 -145 -136 -129 -124 -107 -132 -125 -104 -104 -98 -100 -97 -103 -123 -154 -169 -188 -185 -161 -128 -105 -94
-0 -0 -0 -0 -0 -1 -2 -25 -2 -3 -3 -52 -34 -2 -10 -64 -117 -76 -0 -83 -61 -43 -78 -135 -186 -220 -242 -197 -147 -132 -133 -113 -129 -114 -99 -104 -113 -113 -105 -116 -141 -154 -160 -158 -152 -138 -108 -96 -83
-0 -0 -0 -0 -0 -1 -0 -16 -1 -0 -2 -11 -28 -17 -14 -69 -90 -46 -0 -73 -59 -59 -55 -82 -123 -166 -206 -229 -176 -143 -130 -121 -118 -126 -107 -131 -135 -136 -89 -130 -122 -168 -166 -134 -112 -91 -73 -71 -99
-0 -0 -0 -6 -0 -0 -0 -6 -0 -2 -1 -10 -22 -33 -42 -79 -84 -70 -0 -54 -46 -58 -39 -53 -79 -116 -108 -134 -191 -205 -194 -184 -169 -169 -134 -123 -90 -59 -68 -94 -147 -164 -143 -100 -89 -79 -88 -119 -41
-0 -0 -0 -1 -0 -0 -0 -1 -8 -0 -0 -0 -5 -21 -40 -62 -65 -53 -71 -74 -50 -58 -40 -34 -62 -98 -85 -88 -127 -130 -136 -143 -139 -116 -69 -121 -61 -98 -126 -131 -93 -113 -195 -31 -60 -50 -58 -5 -0
-0 -0 -0 -1 -0 -0 -0 -0 -0 -1 -0 -29 -0 -16 -33 -41 -45 -40 -47 -0 -61 -65 -63 -55 -61 -77 -76 -86 -91 -84 -70 -81 -86 -85 -83 -62 -59 -82 -91 -67 -58 -28 -9 -0 -0 -0 -0 -0 -0
-0 -0 -0 -0 -0 -0 -0 -0 -1 -0 -0 -2 -8 -16 -26 -34 -31 -43 -55 -67 -56 -54 -58 -66 -65 -82 -87 -101 -91 -75 -79 -78 -78 -73 -81 -87 -81 -83 -79 -92 -82 -64 -5 -0 -0 -0 -0 -0 -0
-0 -0 -0 -0 -0 -0 -0 -0 -0 -0 -0 -12 -8 -6 -14 -21 -26 -37 -40 -39 -50 -44 -41 -57 -61 -90 -93 -74 -82 -88 -84 -88 -98 -91 -109 -113 -84 -85 -90 -56 -42 -48 -24 -2 -0 -0 -1 -0 -0
-0 -0 -0 -0 -0 -0 -0 -0 -0 -0 -1 -0 -8 -6 -8 -25 -24 -23 -28 -36 -43 -48 -42 -57 -71 -101 -104 -112 -100 -94 -101 -102 -106 -83 -104 -117 -88 -72 -48 -16 -2 -0 -0 -0 -0 -0 -1 -15 -17
-0 -0 -0 -0 -0 -0 -0 -0 -0 -0 -0 -0 -0 -0 -0 -9 -23 -18 -26 -35 -58 -51 -47 -65 -68 -96 -138 -123 -130 -121 -94 -115 -76 -61 -79 -87 -65 -36 -9 -3 -0 -0 -0 -0 -0 -3 -19 -0 -0
-0 -0 -0 -0 -0 -0 -0 -0 -0 -0 -0 -0 -0 -0 -5 -0 -12 -20 -15 -32 -52 -59 -68 -70 -69 -71 -131 -113 -127 -109 -63 -112 -78 -54 -44 -39 -49 -38 -27 -0 -0 -1 -0 -0 -0 -0 -2 -0 -3
-0 -0 -0 -0 -0 -0 -0 -0 -0 -0 -1 -0 -0 -0 -0 -1 -1 -17 -25 -18 -48 -76 -63 -71 -73 -45 -71 -120 -110 -107 -101 -109 -90 -58 -40 -25 -14 -7 -4 -0 -1 -0 -0 -0 -13 -0 -0 -2 -1
-0 -0 -0 -0 -0 -0 -0 -0 -0 -0 -0 -0 -0 -0 -0 -0 -0 -2 -16 -15 -32 -56 -76 -100 -79 -81 -86 -102 -113 -83 -91 -89 -93 -66 -23 -6 -0 -0 -0 -0 -0 -0 -0 -0 -0 -0 -0 -0 -0
-0 -0 -0 -0 -0 -0 -0 -0 -0 -0 -0 -0 -0 -0 -0 -0 -0 -2 -3 -17 -27 -46 -84 -81 -97 -71 -86 -93 -76 -67 -52 -58 -53 -12 -8 -3 -0 -0 -1 -0 -0 -0 -1 -0 -7 -1 -2 -0 -59
-0 -0 -0 -0 -0 -0 -0 -0 -0 -0 -0 -0 -0 -0 -0 -0 -0 -0 -1 -4 -19 -36 -47 -84 -63 -80 -115 -87 -71 -47 -36 -29 -42 -11 -8 -7 -14 -28 -12 -12 -1 -2 -1 -8 -57 -128 -222 -194 -0
-0 -0 -0 -0 -0 -0 -0 -0 -0 -0 -0 -0 -0 -0 -0 -0 -0 -0 -18 -1 -16 -31 -65 -62 -55 -37 -73 -60 -78 -65 -103 -86 -51 -24 -27 -68 -60 -53 -48 -25 -26 -47 -129 -183 -217 -0 -0 -0 -0
-0 -0 -0 -0 -0 -0 -0 -0 -0 -0 -0 -0 -0 -0 -0 -0 -0 -0 -0 -0 -4 -26 -74 -72 -31 -30 -37 -70 -58 -77 -80 -81 -73 -35 -37 -40 -85 -103 -173 -126 -172 -258 -334 -397 -0 -0 -0 -0 -0
-0 -0 -0 -0 -0 -0 -0 -0 -0 -0 -0 -1 -0 -5 -15 -12 -11 -1 -1 -2 -1 -2 -7 -29 -32 -25 -31 -46 -59 -33 -67 -32 -43 -25 -111 -106 -148 -239 -322 -357 -419 -0 -0 -0 -0 -0 -0 -0 -0
-0 -0 -0 -0 -0 -0 -0 -0 -0 -3 -2 -29 -66 -111 -144 -140 -124 -68 -34 -8 -4 -0 -1 -0 -16 -46 -36 -44 -73 -20 -34 -4 -0 -45 -114 -88 -175 -384 -470 -472 -420 -0 -0 -0 -0 -0 -0 -0 -0
-0 -0 -0 -0 -0 -0 -4 -0 -0 -13 -22 -72 -15 -0 -0 -0 -65 -222 -124 -59 -56 -0 -0 -0 -2 -30 -40 -39 -53 -9 -22 -21 -33 -60 -112 -90 -249 -394 -518 -522 -0 -0 -0 -0 -0 -0 -0 -0 -0
-0 -0 -0 -0 -0 -0 -0 -0 -9 -58 -84 -0 -0 -0 -0 -0 -0 -132 -204 -55 -18 -47 -4 -0 -0 -3 -15 -9 -4 -10 -1 -0 -33 -46 -100 -298 -232 -449 -0 -0 -0 -0 -0 -0 -0 -0 -0 -0 -0
-0 -0 -0 -0 -0 -0 -0 -0 -54 -114 -0 -0 -0 -0 -0 -0 -0 -0 -214 -180 -104 -46 -12 -0 -24 -8 -17 -1 -3 -7 -56 -9 -35 -145 -190 -205 -243 -493 -0 -0 -0 -0 -0 -0 -0 -0 -0 -0 -0
-0 -0 -0 -0 -0 -0 -0 -0 -21 -0 -0 -0 -0 -0 -0 -0 -0 -0 -0 -218 -110 -142 -125 -46 -8 -39 -31 -3 -7 -56 -34 -31 -70 -127 -147 -262 -447 -0 -0 -0 -0 -0 -0 -0 -0 -0 -0 -0 -0
-0 -0 -0 -0 -0 -0 -0 -0 -1 -3 -0 -0 -0 -0 -0 -0 -0 -0 -0 -0 -0 -146 -140 -139 -36 -26 -29 -1 -0 -0 -11 -44 -175 -166 -305 -385 -0 -0 -0 -0 -0 -0 -0 -0 -0 -0 -0 -0 -0
Wind_Speed
11 15 10 8 10 6 4 16 16 5 9 9 10 7 15 15 16 6 13 10 22 20 18 16 14 14 14 14 13 13 12 11 11 12 12 13 12 12 11 11 10 11 10 10 10 9 8 8 8
14 12 9 10 6 7 9 15 16 15 10 5 10 2 8 15 13 14 12 15 21 19 16 16 14 13 14 12 13 12 12 11 12 12 12 12 12 11 10 10 9 9 8 8 7 7 6 6 4
14 12 12 12 6 8 11 15 18 13 9 7 8 3 7 8 5 13 18 18 21 17 17 17 15 13 14 14 13 12 12 12 12 12 12 11 11 10 9 8 8 7 6 6 5 4 4 3 3
7 11 9 12 2 11 9 27 18 14 9 3 7 13 10 8 9 10 17 19 18 18 19 18 16 14 14 14 13 13 13 12 12 12 11 10 10 9 8 7 6 6 5 4 4 3 2 3 4
10 10 12 13 12 6 5 8 6 16 7 7 4 15 9 5 11 17 18 17 17 18 19 17 16 16 15 15 14 14 13 12 12 11 11 10 10 8 7 6 6 4 4 3 2 1 2 4 5
11 10 13 14 13 8 2 2 3 10 9 7 3 10 12 12 16 17 17 17 16 18 17 17 15 15 14 15 14 14 12 12 12 11 9 9 8 7 6 5 5 4 3 2 2 3 4 6 7
15 13 16 19 4 1 4 2 7 6 6 11 0 9 12 15 15 17 16 15 16 18 18 16 15 14 14 14 13 13 12 11 11 10 9 8 7 7 6 5 5 4 4 4 5 5 6 7 8
13 13 21 7 12 2 8 4 6 2 16 6 4 7 13 17 16 15 16 16 16 17 18 17 16 16 14 13 13 13 12 11 10 9 9 8 7 7 8 7 10 8 7 7 7 8 9 10 11
13 13 16 15 10 2 6 10 3 2 7 5 4 7 16 19 17 16 16 16 15 14 17 17 17 16 15 15 13 12 11 11 10 9 9 9 9 10 12 8 11 9 8 9 10 10 12 13 16
15 14 22 4 6 9 4 10 17 7 7 8 10 8 18 19 17 17 16 15 17 16 17 16 16 16 15 12 14 12 11 10 10 10 11 9 10 6 4 6 11 10 11 12 15 15 16 15 12
17 18 22 6 2 6 11 9 9 13 15 11 17 15 17 19 17 17 17 16 17 17 14 16 12 12 13 12 10 8 8 8 8 10 9 9 5 6 6 6 8 8 14 9 13 14 11 15 6
20 18 23 6 5 9 11 7 5 11 12 6 8 20 18 18 18 17 17 16 16 16 15 14 14 12 10 8 9 9 8 8 7 8 9 6 5 4 6 5 5 4 6 7 4 7 7 7 10
21 16 17 13 8 12 9 11 11 10 13 6 6 18 17 17 17 15 14 14 13 15 15 14 15 12 10 8 8 7 7 7 8 7 9 8 7 5 5 5 5 6 6 5 6 7 6 7 10
17 13 23 14 15 15 14 14 8 15 12 5 7 17 17 18 18 16 16 15 14 14 16 15 16 14 13 10 8 7 7 7 6 7 7 9 6 4 6 5 6 5 6 6 7 6 8 8 9
11 15 16 19 16 16 13 16 15 16 6 11 11 13 17 17 18 18 18 16 16 14 15 15 15 16 14 13 10 8 8 8 8 7 8 8 8 5 6 6 5 5 5 6 7 9 7 4 5
14 16 17 20 24 22 18 15 20 16 12 13 15 15 16 19 19 19 18 17 18 16 15 16 15 18 15 13 11 9 8 8 8 7 7 9 9 7 7 6 6 6 4 7 7 5 5 8 6
13 14 19 17 20 21 20 18 20 17 18 14 14 14 14 16 18 18 20 19 18 17 17 16 15 17 17 13 11 11 10 8 8 7 7 10 9 9 8 7 7 3 6 8 6 7 3 7 5
11 17 13 10 13 10 15 18 19 20 14 12 16 16 15 18 19 19 20 20 20 18 16 16 14 13 16 12 10 10 9 10 9 8 7 9 8 9 8 8 4 4 7 5 5 6 6 6 5
13 13 13 13 5 1 13 16 20 23 24 15 15 19 18 17 17 20 21 19 18 18 17 18 17 16 13 13 13 11 11 10 10 8 9 7 9 8 7 4 3 4 4 3 4 5 5 6 2
12 13 15 13 12 8 13 18 18 19 19 20 18 19 20 19 19 18 21 21 18 18 19 17 18 17 15 12 10 10 10 11 9 8 8 9 7 7 4 4 4 4 2 1 2 4 6 7 5
13 13 13 14 11 12 15 18 19 19 20 21 22 22 21 21 20 19 20 22 20 18 18 18 17 17 17 15 10 8 9 7 10 8 6 5 6 6 6 6 5 4 5 4 1 3 2 6 3
13 10 8 10 13 13 14 11 13 15 20 22 22 22 18 19 21 19 19 20 23 21 18 18 17 17 17 16 14 14 12 12 10 9 10 9 10 10 8 7 6 4 2 4 4 4 5 4 4
12 11 9 13 13 15 17 12 14 15 15 16 12 14 19 22 20 20 19 20 20 21 20 17 17 17 16 17 15 14 14 12 11 11 14 10 10 10 10 9 8 6 5 5 5 3 4 1 4
11 12 16 17 16 17 18 18 16 15 17 6 10 9 13 18 18 14 10 12 17 20 19 18 16 17 18 17 19 17 18 15 13 12 11 10 10 9 10 10 8 6 7 6 6 4 5 4 4
12 11 11 14 15 14 17 16 13 7 11 23 22 23 23 24 26 25 25 18 9 10 12 15 17 16 17 18 19 17 17 17 15 15 12 13 9 9 10 10 8 7 6 6 5 4 4 3 5
13 10 12 18 14 17 21 13 7 5 21 20 20 20 22 24 23 24 26 23 23 8 10 15 16 16 18 19 19 16 16 13 12 13 12 10 8 9 11 9 9 10 8 7 6 6 5 4 5
9 9 13 13 16 17 17 22 22 20 23 23 23 24 24 23 22 24 24 28 28 31 8 11 11 14 16 18 14 14 14 13 13 15 12 9 9 10 11 11 10 9 8 8 6 6 4 5 3
7 12 10 9 18 19 15 16 7 17 18 19 22 23 23 23 22 22 21 17 22 17 19 9 5 6 10 12 10 8 10 11 12 13 12 14 11 14 13 13 12 10 9 7 6 7 5 3 4
11 5 8 9 9 13 16 10 13 15 14 18 21 22 22 23 25 24 23 23 19 18 15 12 11 9 8 8 7 9 11 13 13 11 12 11 13 14 14 14 13 11 9 7 4 4 6 4 4
10 11 9 8 10 15 14 16 7 2 16 23 23 23 21 23 22 22 22 22 13 22 15 17 14 6 8 9 9 10 10 12 11 11 13 14 14 14 14 14 13 11 9 8 9 6 5 3 3
Wind_Direction
245 222 239 250 243 296 214 98 118 117 110 44 98 6 49 38 10 68 130 141 117 126 126 139 138 139 140 138 137 138 139 135 132 129 129 128 120 118 116 115 110 107 103 98 93 90 86 79 73
287 280 239 269 233 226 322 137 97 67 91 47 81 275 95 72 50 123 127 131 122 127 142 134 140 142 143 141 139 142 139 138 136 136 133 128 123 119 116 115 109 107 107 102 98 88 79 72 66
265 265 274 240 263 110 275 111 105 109 118 138 129 328 22 66 96 144 118 138 122 137 132 123 142 145 149 148 147 146 143 144 142 137 136 130 124 121 120 116 112 114 110 107 98 86 74 49 21
285 253 240 256 7 150 146 297 105 117 103 117 349 101 102 38 133 112 151 138 144 142 123 136 141 147 152 153 152 149 150 149 142 142 141 135 129 128 127 125 124 123 119 112 98 75 31 9 346
246 260 266 249 270 108 354 18 14 102 89 83 340 91 74 94 109 136 144 144 151 133 123 141 145 151 156 160 155 153 153 150 148 146 146 141 137 138 141 141 137 136 129 120 104 20 323 320 315
277 257 271 258 228 110 25 43 281 108 75 63 143 106 88 131 136 143 151 159 145 127 142 136 149 154 158 160 159 157 155 154 151 152 150 144 147 151 153 154 149 154 160 184 255 289 295 296 299
262 272 254 274 26 354 121 344 232 139 106 87 269 94 115 148 139 150 159 157 145 136 138 150 154 157 161 161 160 161 158 157 154 158 155 158 169 172 171 175 179 184 210 225 249 262 269 276 280
273 278 271 276 275 144 84 230 239 240 88 113 290 81 157 135 150 158 162 163 152 154 144 154 154 161 166 161 166 164 163 163 161 164 168 178 189 188 199 204 201 199 222 239 246 256 262 262 260
256 270 256 229 236 341 109 235 147 29 108 135 88 63 118 140 160 170 167 165 163 168 153 162 165 164 174 158 160 168 170 168 170 176 186 194 209 183 181 167 156 202 226 247 254 254 256 254 250
236 243 253 349 55 341 1 269 156 199 202 157 125 116 125 156 170 175 174 174 171 176 163 163 171 164 173 152 150 180 173 184 191 189 176 221 224 187 289 158 175 207 229 241 242 239 241 249 260
231 252 257 123 240 321 306 230 184 197 190 200 167 152 154 166 179 183 184 182 178 175 172 164 172 163 172 166 164 182 174 185 192 196 191 217 208 202 210 221 201 212 211 236 205 224 230 235 308
238 243 263 309 109 245 280 349 234 238 235 125 145 148 162 176 183 189 188 181 179 172 172 170 168 172 198 173 177 183 188 186 190 194 193 239 221 224 265 246 259 201 196 250 285 268 327 318 272
237 245 251 259 252 253 279 257 252 220 241 106 187 147 171 184 185 189 182 172 176 174 172 182 168 178 196 205 183 196 205 191 191 177 187 223 225 232 236 248 270 289 306 306 280 279 302 300 273
238 231 256 241 242 238 243 254 182 237 223 183 203 166 180 189 184 185 183 174 182 185 172 184 175 174 193 201 199 197 192 179 217 192 202 214 236 222 251 233 250 259 273 282 284 310 334 311 300
275 268 266 257 252 250 249 245 256 247 166 182 192 187 183 194 186 192 187 182 184 186 176 186 186 174 198 193 203 208 189 216 198 210 193 211 205 223 269 254 262 260 252 280 276 260 268 271 336
241 243 247 229 222 233 243 257 228 222 194 223 193 192 196 187 199 196 192 188 182 185 186 189 190 176 188 189 194 204 206 207 203 201 189 204 209 231 206 245 250 264 290 286 280 305 322 319 313
213 244 231 246 216 219 219 233 257 229 210 220 240 201 208 203 202 205 196 191 191 191 186 189 193 185 181 195 197 209 196 214 208 204 199 180 209 216 227 247 256 236 275 274 303 305 327 300 317
238 208 227 262 224 212 265 255 241 258 226 215 238 250 232 205 207 204 208 198 191 191 187 192 191 201 175 183 206 198 200 199 214 207 208 179 209 213 221 243 286 290 264 293 359 337 330 302 321
333 307 305 306 254 332 281 275 250 238 256 215 234 241 243 247 218 201 200 211 194 191 193 191 193 189 182 193 195 199 203 199 208 205 208 203 218 223 212 243 209 248 302 323 328 300 274 296 321
265 260 260 260 263 284 271 265 256 266 261 261 253 244 250 242 238 242 195 191 202 191 195 194 195 189 193 196 199 203 200 195 203 191 184 211 200 177 184 233 171 204 120 270 357 306 316 302 52
247 261 276 283 298 220 267 266 261 259 255 254 249 253 255 256 251 233 239 189 189 200 195 203 201 195 196 201 195 202 201 198 198 180 175 200 175 166 177 187 135 169 253 145 343 357 17 329 319
273 264 292 276 259 259 241 287 268 249 227 231 243 246 254 249 255 263 245 226 185 195 199 200 205 205 197 203 193 197 200 192 193 189 180 169 173 176 169 164 155 191 119 102 120 65 333 347 339
287 327 285 284 276 279 265 260 258 257 256 259 235 244 252 251 240 233 239 251 200 187 195 206 200 204 207 198 219 188 203 191 189 189 141 164 175 163 161 156 151 151 161 108 102 79 28 332 326
275 287 273 266 258 252 250 253 266 264 275 241 216 320 333 350 349 257 253 295 259 194 190 199 199 204 204 199 208 200 195 200 185 173 168 172 173 169 155 151 147 147 119 138 120 107 79 26 21
239 265 272 257 235 242 237 233 251 350 354 50 43 31 22 10 9 356 354 334 268 225 198 209 199 210 210 207 203 209 194 213 172 158 179 175 169 169 157 147 146 143 131 136 121 114 120 89 52
294 298 288 304 299 312 322 302 357 73 73 63 47 30 19 11 5 3 353 342 328 217 239 236 214 214 213 213 210 210 203 198 179 179 177 173 166 160 151 146 153 137 149 144 140 158 148 125 102
1 274 344 293 279 270 272 268 255 65 50 33 27 13 8 3 0 358 355 1 359 344 174 258 246 216 216 214 205 200 205 175 188 178 160 159 158 126 151 147 140 148 149 158 171 119 142 141 139
348 330 306 271 269 267 269 282 54 53 40 25 11 4 360 356 356 355 350 350 347 2 344 332 348 249 260 251 199 181 169 189 167 174 178 165 141 148 151 148 146 150 152 163 188 165 151 122 95
331 346 354 318 291 294 288 284 80 83 55 16 2 354 353 347 347 349 344 349 348 339 323 300 294 232 215 249 167 183 180 180 166 166 183 143 141 145 149 152 150 152 162 145 127 94 143 132 125
49 34 2 334 324 321 301 273 325 286 30 3 350 338 340 333 336 331 326 327 347 342 321 307 295 288 213 211 195 198 172 159 157 166 153 144 152 154 156 156 147 152 154 159 168 165 109 96 66